Location: ??????
(30.0081°N, 31.2109°E)
Time: 08:24:02
(UTC+00:00)

GP-B - Pass Details

Date: 03 March 2021
Orbit: 631 x 635 km, 89.8° (Epoch: 15 April)

Event Time Altitude Azimuth Distance (km) Brightness Sun altitude
Rises 17:39:46 0° 192° (SSW) 2,912 6.6 -23.3°
Reaches altitude 10° 17:42:05 10° 200° (SSW) 2,009 5.8 -23.8°
Maximum altitude 17:46:14 40° 270° (W) 932 4.4 -24.7°
Drops below altitude 10° 17:50:26 10° 341° (NNW) 2,021 6.0 -25.6°
Sets 17:52:46 0° 348° (NNW) 2,933 6.8 -26.1°
